Home > Weather > Yellowknife > Past weeks

Flag for Canada Weather for the Past 2 Weeks in Yellowknife, Northwest Territories, Canada

Now
55 °F

Broken clouds.


Feels Like: 51 °F
Forecast: 35 / 56 °F
Wind: 16 mph from Southeast

Location: Yellowknife

Current Time: Apr 28, 2016 at 4:47:40 PM

Latest Report: Apr 28, 2016 at 4:00 PM


Visibility: 15 mi

Pressure: 30.06 "Hg

Humidity: 51%

Dew Point: 37 °F

Location of YellowknifeLocation

Historic Weather in Yellowknife — Graph

°F

Yellowknife Temperature Yesterday

Maximum temperature yesterday: 37 °F (at 5:00 PM)
Minimum temperature yesterday: 21 °F (at 5:00 AM)
Average temperature yesterday: 30 °F

High & Low Weather Summary for the Past Weeks

 TemperatureHumidityPressure
High55 °F (Apr 18, 4:00 PM)93% (Apr 13, 9:53 PM)30.59 "Hg (Apr 13, 9:53 PM)
Low-2 °F (Apr 15, 6:00 AM)33% (Apr 24, 3:00 PM)29.24 "Hg (Apr 19, 7:52 AM)
Average27 °F65%30.17 "Hg
* Reported Apr 13 3:00 PM — Apr 28 3:00 PM, Yellowknife, Weather by CustomWeather, © 2016

Note: Actual official high and low records may vary slightly from our data, if they occured in-between our weather recording intervals... More about our weather records

Advertising

Yellowknife Weather History for the Previous 24 Hours

Scroll right to see more
 ConditionsComfort  
Time TempWeatherWind HumidityBarometerVisibility
3:00 PM
Thu, Apr 28
54 °FScattered clouds.14 mph54%30.07 "Hg15 mi
2:00 PM52 °FScattered clouds.15 mph58%30.10 "Hg15 mi
1:00 PM48 °FScattered clouds.20 mph66%30.11 "Hg15 mi
12:00 PM48 °FBroken clouds.15 mph71%30.12 "Hg15 mi
11:00 AM43 °FBroken clouds.14 mph76%30.12 "Hg15 mi
10:00 AM41 °FPartly sunny.17 mph81%30.14 "Hg15 mi
9:00 AM39 °FPartly sunny.10 mph87%30.14 "Hg15 mi
8:00 AM37 °FLow clouds.9 mph87%30.15 "Hg15 mi
7:00 AM36 °FLow clouds.9 mph93%30.16 "Hg15 mi
6:00 AM36 °FMostly cloudy.9 mph87%30.16 "Hg15 mi
5:00 AM36 °FPassing clouds.10 mph87%30.17 "Hg15 mi
4:00 AM36 °FLow clouds.9 mph87%30.17 "Hg15 mi
3:00 AM36 °FOvercast.7 mph87%30.19 "Hg15 mi
2:00 AM36 °FOvercast.7 mph81%30.19 "Hg15 mi
1:00 AM36 °FOvercast.8 mph81%30.20 "Hg15 mi
12:00 AM36 °FOvercast.8 mph81%30.21 "Hg15 mi
11:49 PM
Wed, Apr 27
36 °FOvercast.8 mph81%30.21 "Hg15 mi
11:00 PM36 °FPassing clouds.7 mph81%30.21 "Hg15 mi
10:00 PM36 °FMore clouds than sun.5 mph81%30.22 "Hg15 mi
9:00 PM36 °FDrizzle. Mostly cloudy.7 mph87%30.22 "Hg12 mi
8:49 PM36 °FDrizzle. Mostly cloudy.9 mph87%30.22 "Hg12 mi
8:00 PM37 °FMore clouds than sun.9 mph75%30.22 "Hg15 mi
7:00 PM37 °FOvercast.10 mph75%30.22 "Hg15 mi
6:00 PM37 °FOvercast.8 mph70%30.23 "Hg15 mi
5:00 PM37 °FOvercast.5 mph65%30.24 "Hg15 mi
4:00 PM36 °FOvercast.5 mph70%30.24 "Hg15 mi
Weather by CustomWeather, © 2016

See weather overviewHow to use our weather pages